Showing default

IRIDIUM 112, 41925

Orbit data source: Space-Track

IRIDIUM 112, 41925 is a payload satellite owned by Iridium (US) in LEO that was launched on Sat, 14 Jan 2017 UTC via an FALCON 9 launch vehicle from the Air Force Western Test Range (AFWTR). Payload-class satellites include a variety of spacecraft equipped with specific instruments for various scientific and technological missions. These include communications satellites like Starlink; space stations such as the ISS; scientific satellites like the Hubble; Earth observation satellites from companies like Planet Labs, Umbra, and HawkEye 360; GPS; miniature CubeSats for education and research; and military/defense satellites.

Loading next visibility...
Identifier
41925, 2017-003J
Orbit
LEO
Last TLE update
14 hours ago
Origin
Manufacturer
OATK SSG Gilbert
Mission
Operational Commercial Communications
Bus & Motor
ELITEBUS, Unknown motor
Mass
860 kg wet, 700 kg dry
Launch date (UTC)
2017-01-14 (8 years ago)
Launch vehicle
FALCON 9
Launch site
Air Force Western Test Range (AFWTR)
Object type
Payload
Rocket body
Debris
Shape & HBR
Trap Box + 2 Pan, 9.4 m
Radar Cross Section
14.423 m², Large (>1 m²)

Expand to show TLE details & history

TLE from 14 hours ago
0 IRIDIUM 112
1 41925U 17003J   25183.59326521  .00000152  00000-0  47206-4 0  9995
2 41925  86.3959 234.3302 0002352  95.4796 264.6668 14.34218678443162
Epoch: 2025-07-02T14:14Z
TLE epoch observation values (Epoch: 2025-07-02T14:14:18.114Z)
Latitude
-0.00002°
Longitude
99.88258°
Altitude
780.872 km
Speed
7.463 km/s
True Right ascension
15h 37m 19s
True Declination
0° 00' 00"
Sunlit
Object was in full shadow at epoch
Visualization orbit readout
Latitude
27.33143°
Longitude
101.50262°
Altitude
780.458 km
Speed
7.466 km/s
Apparent Right ascension
16h 26m 17s
Apparent Declination
-28° 08' 55"
Sunlit
Object is in daylight
Visualization observer readout
Local Sidereal Time
15:30:52
Azimuth
166.951° S
Elevation
20.725°
Doppler factor
1
Orbital elements
Apogee altitude
776.311 km
Perigee altitude
772.946 km
Semi-major axis
7,152.766 km
Eccentricity
0.00024
Inclination
86.3959°
RAAN
234.3302°
Arg. of periapsis
95.4796°
True anomaly
Unknown
Mean anomaly
264.6668°
Eccentric anomaly
Unknown
Mean motion
3.58783 °/min
Orbital period
100.34 mins
BSTAR
0.000047206
Loading maneuver chart data...
Loading SW <> Apogee altitude chart data...
Loading historical data...
Loading historical data...
Loading historical data...
Loading historical data...
Loading historical data...
Loading historical data...
Loading historical data...

IRIDIUM 112 Visibility forecast

Observer location: undefined°, undefined°

Span
Click to sort rows by Start time (UTC) header in descending order
Start Az.
Max El. time (UTC)
Max El. Az.
Max El.
End time (UTC)
End Az.
8 mins2025-07-03 03:45:38.025Z167.036° S2025-07-03 03:49:38.025Z57.143° ENE41.608°2025-07-03 03:53:38.025Z9.444° NNE
4 mins2025-07-03 14:17:38.025Z53.321° ENE2025-07-03 14:19:38.025Z80.706° E16.162°2025-07-03 14:21:38.025Z106.236° ESE
8 mins2025-07-03 15:56:38.025Z342.649° N2025-07-03 16:00:38.025Z258.342° W38.137°2025-07-03 16:04:38.025Z199.068° SSW
7 mins2025-07-04 03:12:38.025Z139.316° SSE2025-07-04 03:15:38.025Z88.263° E29.94°2025-07-04 03:19:38.025Z25.029° NE
|